Regional Weather Roundup
Issued by NWS Sterling, VA

Home | Current Version | Previous Version | Text Only | Print | Product List | Glossary Off
Versions: 1 2 3 4 5 6 7 8 9 10 11 12 13 14 15 16 17 18 19 20 21 22 23 24 25 26 27 28 29 30 31 32 33 34 35 36 37 38 39 40 41 42 43 44 45 46 47 48 49 50

673
ASUS41 KLWX 282110
RWRLWX

REGIONAL WEATHER ROUNDUP
NATIONAL WEATHER SERVICE BALTIMORE MD/WASHINGTON DC
500 PM EDT SUN AUG 28 2016

Note: "FAIR" indicates few or no clouds below 12,000 feet
with no significant weather and/or obstructions to visibility.
 TC=TEMPERATURE CELSIUS

 * =Non NWS site. Station does not report precipitation (e.g. rain,
    snow, etc.), thunder, or fog.

DCZ001-MDZ009-015-VAZ040>042-051-053>054-282200-
WASHINGTON METRO

CITY           SKY/WX    TMP DP  RH WIND       PRES   REMARKS
WASHINGTON NAT MOSUNNY   88  64  44 SE9       30.16F
DULLES         MOSUNNY   89  59  36 SE9       30.16F
ANDREWS AFB    SUNNY     85  65  50 SE9       30.17F
FT BELVOIR     SUNNY     87  62  42 SE7       30.16F
QUANTICO       SUNNY     89  65  44 NE8       30.16  HX  91
COLLEGE PARK*  SUNNY     86  61  42 S6        30.16F
LEESBURG*      SUNNY     90  66  45 E7        30.17F HX  92
MANASSAS*      SUNNY     88  63  42 CALM      30.16F
GAITHERSBURG*  SUNNY     84  64  51 E3        30.21F

$$

MDZ006>007-011-014-282200-
BALTIMORE METRO

CITY           SKY/WX    TMP DP  RH WIND       PRES   REMARKS
BWI AIRPORT    MOSUNNY   86  64  47 SE8       30.16F
MD SCIENCE CTR   N/A     86  64  47 MISG      30.17F
MARTIN STATE   SUNNY     86  72  62 CALM      30.18F HX  92
ANNAPOLIS      SUNNY     87  68  52 CALM      30.16F HX  90
FORT MEADE*    SUNNY    N/A N/A N/A E3        30.19F

$$

MDZ012-015-019>023-282200-
MARYLAND EASTERN SHORE

CITY           SKY/WX    TMP DP  RH WIND       PRES   REMARKS
OCEAN CITY     SUNNY     82  69  64 NE12      30.17F
SALISBURY      SUNNY     84  62  47 E13       30.16F
BAY BRIDGE AP* SUNNY     84  72  65 NW6       30.17S
CAMBRIDGE*     SUNNY     86  61  42 E6        30.16F
EASTON*        SUNNY     90  70  51 E12       30.19F HX  95

$$

MDZ017>025-282200-
SOUTHERN MARYLAND

CITY           SKY/WX    TMP DP  RH WIND       PRES   REMARKS
PATUXENT RIVER MOSUNNY   85  66  53 SE5       30.16F
ST INIGOES     SUNNY     86  66  51 E7        30.15F
LEONARDTOWN*   SUNNY     84  64  51 CALM      30.18F

$$

MDZ003>005-282200-
NORTH CENTRAL MARYLAND

CITY           SKY/WX    TMP DP  RH WIND       PRES   REMARKS
FREDERICK*     NOT AVBL
HAGERSTOWN APT SUNNY     89  62  40 S9        30.17F

$$

MDZ501>502-282200-
WESTERN MARYLAND

CITY           SKY/WX    TMP DP  RH WIND       PRES   REMARKS
OAKLAND*       SUNNY     73  66  78 S6        30.29F
CUMBERLAND*    SUNNY     91  64  40 CALM      30.18F HX  93

$$

VAZ025>031-282200-
SHENANDOAH VALLEY

CITY           SKY/WX    TMP DP  RH WIND       PRES   REMARKS
WINCHESTER*    SUNNY     88  63  42 S7        30.17F
FRONT ROYAL*   FAIR      88  64  45 SE3       30.16F
LURAY*         FAIR      88  64  45 NE6       30.17F
NEW MARKET*    FAIR     N/A N/A N/A NE5       30.15F
STAUNTON*      SUNNY     87  64  46 SE6       30.21F
WAYNESBORO*    FAIR      86  57  37 SE7       30.21F

$$

WVZ021-048>050-054>055-282200-
EASTERN WEST VIRGINIA PANHANDLE

CITY           SKY/WX    TMP DP  RH WIND       PRES   REMARKS
MARTINSBURG    SUNNY     87  63  44 SE8       30.16F
PETERSBURG*    MOSUNNY   93  68  43 NE7       30.14F HX  97

$$

VAZ036>039-050-282200-
CENTRAL FOOTHILLS

CITY           SKY/WX    TMP DP  RH WIND       PRES   REMARKS
CHARLOTTESVILL SUNNY     90  61  37 SE5       30.17F HX  90
CULPEPER*      SUNNY     90  67  47 CALM      30.17S HX  93
ORANGE*          N/A     88  64  45 CALM      30.18F
GORDONSVILLE*  FAIR      88  66  48 CALM      30.16S HX  90
WARRENTON*     FAIR      89  55  31 SE3       30.16F

$$

VAZ055>057-282200-
NORTH AND CENTRAL PIEDMONT

CITY           SKY/WX    TMP DP  RH WIND       PRES   REMARKS
FREDERICKSBRG*   N/A     88  67  49 E8        30.15S HX  91
STAFFORD*      SUNNY     89  64  44 E7        30.20S HX  90

$$

NCZ024-NYZ072-PAZ021-071-VAZ022-071-282200-
OTHER REGIONAL OBSERVATIONS

CITY           SKY/WX    TMP DP  RH WIND       PRES   REMARKS
NEW YORK CITY  SUNNY     83  60  45 VRB7      30.20F
PHILADELPHIA   MOSUNNY   89  63  41 S8        30.16F HX  90
PITTSBURGH     MOSUNNY   88  70  55 W7        30.15F HX  93
ROANOKE        MOSUNNY   89  58  34 SE10      30.19F
RICHMOND       PTSUNNY   87  63  44 E10       30.14F
RALEIGH        PTSUNNY   88  65  46 NE12      30.13F HX  90

$$

ANZ530>537-282200-
MARINE OBSERVATIONS

STATION/POSITION TIME  TEMP    WIND        PRES
                       AIR SEA DIR/SP/G
                 (UTC) (F)     (DEG/KT/KT) (MB)
THOMAS PT LIGHT  2100   83 84   10/  6/  7 1022.7F
BALT KEY BRIDGE  2048   83     130/  4/  5 1021.5F
COVE POINT       2048   81     360/  6/  8 1021.8F
LEWISETTA        2048   84 85   70/  6/  8 1020.9F
SOLOMONS ISLAND  2042   83 85  110/  5/  6   N/A
PINEY POINT      2048          100/  7/  9   N/A

$$





USA.gov is the U.S. government's official web portal to all federal, state and local government web resources and services.